sat.trackr.live / text

‹ back to catalog

STARLINK-34797

NORAD 65363 · 2025-190N

PAYLOAD ACTIVE UNKNOWN

§ Identity

Operator
Country
US
Launch date
2025-08-28
Launch site
AFETR
Launch vehicle
Mass (kg)
RCS (m²)

Purposes: comms

External: N2YO · Heavens-Above · Gunter

§ Orbital elements

Epoch: 2026-09-20T10:59:04.728768Z

Period
93.85 min
Inclination
53.1600°
Eccentricity
0.0001332
Mean motion
15.34387588 rev/d
Perigee alt
461.8 km
Apogee alt
463.7 km
Semi-major
6,840.9 km
B*
6.0669e-4
RAAN
340.0568°
Arg perigee
93.3568°
Mean anomaly
266.7587°
Rev number
5,962

§ Raw data

STARLINK-347971 65363U 25190N   26263.45769362  .00020169  00000+0  60669-3 0  99982 65363  53.1600 340.0568 0001332  93.3568 266.7587 15.34387588 59624

JSON: /api/v1/satellites/65363 · /tle

For live sub-satellite position, see the globe view (requires WebGL).

§ Visibility from observer

Set your observer location to see the next 7 days of passes ≥ 10°. The values pass through the URL so the page stays shareable.

No JS? Fill the form by hand. The geolocation button needs JavaScript.